TimeCDT,TemperatureF,Dew PointF,Humidity,Sea Level PressureIn,VisibilityMPH,Wind Direction,Wind SpeedMPH,Gust SpeedMPH,PrecipitationIn,Events,Conditions,WindDirDegrees,DateUTC
12:53 AM,72.0,64.9,78,29.95,10.0,SSE,8.1,-,N/A,,Clear,160,2013-05-28 05:53:00
1:53 AM,71.1,64.9,81,29.94,10.0,South,6.9,-,N/A,,Clear,170,2013-05-28 06:53:00
2:53 AM,69.1,64.9,87,29.94,10.0,South,6.9,-,N/A,,Clear,170,2013-05-28 07:53:00
3:53 AM,69.1,66.0,90,29.94,10.0,SSE,8.1,-,N/A,,Clear,160,2013-05-28 08:53:00
4:53 AM,69.1,66.9,93,29.94,10.0,South,8.1,-,N/A,,Clear,170,2013-05-28 09:53:00
5:18 AM,68.0,66.2,94,29.95,9.0,SSE,5.8,-,N/A,,Mostly Cloudy,160,2013-05-28 10:18:00
5:53 AM,68.0,66.9,96,29.95,8.0,South,5.8,-,N/A,,Overcast,170,2013-05-28 10:53:00
6:53 AM,69.1,68.0,96,29.97,6.0,South,8.1,-,N/A,,Overcast,180,2013-05-28 11:53:00
7:26 AM,69.8,68.0,94,29.98,8.0,South,12.7,16.1,N/A,,Overcast,190,2013-05-28 12:26:00
7:53 AM,71.1,68.0,90,29.98,9.0,South,11.5,18.4,N/A,,Overcast,170,2013-05-28 12:53:00
8:53 AM,75.0,69.1,82,29.98,10.0,South,15.0,19.6,N/A,,Mostly Cloudy,180,2013-05-28 13:53:00
9:32 AM,75.2,68.0,78,29.99,10.0,South,11.5,20.7,N/A,,Scattered Clouds,180,2013-05-28 14:32:00
9:53 AM,78.1,68.0,71,29.99,10.0,South,13.8,19.6,N/A,,Clear,170,2013-05-28 14:53:00
10:53 AM,81.0,66.9,62,29.99,10.0,SSE,11.5,19.6,N/A,,Clear,160,2013-05-28 15:53:00
11:53 AM,82.0,66.9,60,29.99,10.0,South,11.5,18.4,N/A,,Partly Cloudy,170,2013-05-28 16:53:00
12:53 PM,82.9,68.0,60,29.97,10.0,SSW,9.2,-,N/A,,Scattered Clouds,200,2013-05-28 17:53:00
1:53 PM,84.0,66.0,55,29.96,10.0,SE,6.9,-,N/A,,Mostly Cloudy,140,2013-05-28 18:53:00
2:53 PM,86.0,66.9,53,29.95,10.0,South,11.5,-,N/A,,Scattered Clouds,180,2013-05-28 19:53:00
3:53 PM,86.0,66.0,51,29.94,10.0,South,8.1,17.3,N/A,,Partly Cloudy,190,2013-05-28 20:53:00
4:53 PM,84.9,66.0,53,29.93,10.0,South,8.1,-,N/A,,Mostly Cloudy,180,2013-05-28 21:53:00
5:53 PM,84.9,66.0,53,29.91,10.0,SE,6.9,-,N/A,,Clear,130,2013-05-28 22:53:00
6:53 PM,82.9,66.9,58,29.89,10.0,SE,6.9,-,N/A,,Clear,130,2013-05-28 23:53:00
7:53 PM,80.1,68.0,67,29.91,10.0,ESE,4.6,-,N/A,,Clear,120,2013-05-29 00:53:00
8:53 PM,75.9,68.0,76,29.91,10.0,ESE,5.8,-,N/A,,Partly Cloudy,110,2013-05-29 01:53:00
9:53 PM,75.9,66.9,74,29.91,10.0,SE,6.9,-,N/A,,Clear,130,2013-05-29 02:53:00
10:53 PM,75.0,66.9,76,29.93,10.0,SE,5.8,-,N/A,,Clear,140,2013-05-29 03:53:00
11:53 PM,73.0,66.9,81,29.92,10.0,SE,8.1,-,N/A,,Clear,140,2013-05-29 04:53:00